Regional Weather Roundup
Issued by NWS San Diego, CA

Home | Current Version | Previous Version | Text Only | Print | Product List | Glossary On
Versions: 1 2 3 4 5 6 7 8 9 10 11 12 13 14 15 16 17 18 19 20 21 22 23 24 25 26 27 28 29 30 31 32 33 34 35 36 37 38 39 40 41 42 43 44 45
000
ASUS46 KSGX 250011
RWRSGX

SAN DIEGO HOURLY WEATHER ROUNDUP
NATIONAL WEATHER SERVICE SAN DIEGO CA
400 PM PST FRI NOV 24 2017

NOTE: "FAIR" INDICATES FEW OR NO CLOUDS BELOW 12,000 FEET WITH NO
SIGNIFICANT WEATHER AND/OR OBSTRUCTIONS TO VISIBILITY.

CAZ042-043-060-061-PZZ750-775-250100-

GREATER SAN DIEGO AREA

CITY           SKY/WX    TMP DP  RH WIND       PRES   REMARKS
SAN DIEGO AP   PTCLDY    72  60  66 S7        29.86F
NATIONAL CITY    N/A     72  64  75 SW1       29.88S
CHULA VISTA      N/A     74  64  69 W3        29.77S
IMPERIAL BEACH PTCLDY    68  60  75 SW7       29.86S
BROWN FIELD    CLEAR     76  55  48 NW5       29.86S
MIRAMAR MCAS   PTCLDY    83  47  28 SW5       29.86S
MONTGOMERY FLD CLEAR     81  46  29 SW5       29.86S
GILLESPIE FLD  CLEAR     84  39  20 SW7       29.86R

$$

NORTH SAN DIEGO COUNTY

CITY           SKY/WX    TMP DP  RH WIND       PRES   REMARKS
CAMP PENDLETON   N/A     77  42  28 S7        29.84F
OCEANSIDE AP   CLEAR     74  50  42 SW7       29.84S
OCEANSIDE HBR    N/A     70  56  61 E3        29.87S
VISTA            N/A     80  45  28 CALM      29.82F
CARLSBAD       CLEAR     73  51  46 CALM      29.85S
DEL MAR          N/A     71  60  69 CALM      29.87S
LA JOLLA SCRIP   N/A     71  62  73 SW1       29.85S
FALLBROOK        N/A     82  40  22 S2        29.87R
ESCONDIDO        N/A     81  43  25 W7        29.85S
SAN MARCOS       N/A     81  45  27 NW7       29.87R
POWAY            N/A     84  45  24 SW3       29.86S

$$

EAST SAN DIEGO COUNTY

CITY           SKY/WX    TMP DP  RH WIND       PRES   REMARKS
RAMONA         CLEAR     84  40  21 W9        29.89S
SANTEE LAKES     N/A     86  44  23 SW5       29.83R
LA MESA          N/A     80  44  27 W3        29.78S
JAMUL            N/A     83  45  26 CALM      29.85S
DESCANSO N       N/A     78  40  25 W5        29.83S
MT. LAGUNA OBS   N/A     69  26  19 W8        29.79R
CAMPO            N/A     83  32  16 SW8       29.92S

$$

ORANGE COUNTY AND THE LOS ANGELES BASIN

CITY           SKY/WX    TMP DP  RH WIND       PRES   REMARKS
JOHN WAYNE AP  PTCLDY    75  52  44 SW5       29.84F
LAGUNA BEACH     N/A     73  51  45 CALM      29.80F
LAKE FOREST FR   N/A     84  38  19 CALM      29.72S
HUNTINGTON BCH   N/A     70  62  75 W2        29.86S
LOS ALAMITOS   PTCLDY    72  57  58 S3        29.85S
FULLERTON      PTCLDY    79  45  29 SW6       29.84S
LONG BEACH     CLEAR     75  52  44 S5        29.85S
L.A. AP        PTCLDY    73  56  54 SW7       29.85F
L.A. DOWNTOWN  CLEAR     78  52  40 CALM      29.84S

$$

THE INLAND EMPIRE

CITY           SKY/WX    TMP DP  RH WIND       PRES   REMARKS
CORONA         CLEAR     82  45  27 W5        29.85F
CHINO          PTCLDY    86  41  20 W10       29.86F
ONTARIO        PTCLDY    86  37  17 W7        29.86F
SAN BERNARDINO PTCLDY    90  32  12 W5        29.87F
RIVERSIDE AP   CLEAR     86  42  21 W3        29.86S
MORENO VALLEY    N/A     87  44  22 NW3       28.02S
MARCH ARB      CLEAR     83  38  20 NW6       29.89S
HORSETHIEF CYN   N/A     83  37  19 CALM      29.85F
PERRIS           N/A     85  44  23 NW5         N/A
HEMET EAST       N/A     85  35  16 CALM      29.92S
FRENCH VALLEY  FAIR      84  37  18 S8        29.89S
TEMECULA         N/A     85  42  21 SW2       29.89R

$$

SAN BERNARDINO AND RIVERSIDE COUNTY MOUNTAINS

CITY           SKY/WX    TMP DP  RH WIND       PRES   REMARKS
BIG BEAR AP    CLEAR     64  28  25 CALM      30.20S
ANGELUS OAKS     N/A     67  37  33 CALM      29.82F

$$

SOUTHERN DESERT INCLUDING THE COACHELLA VALLEY

CITY           SKY/WX    TMP DP  RH WIND       PRES   REMARKS
PALM SPRINGS   CLEAR     86  44  23 SE3       29.84F
THOUSAND PALMS   N/A     86  45  23 N5        29.80S
PALM DESERT      N/A     85  51  30 CALM      31.99S
THERMAL        CLEAR     83  43  24 S3        29.79F
BLYTHE         CLEAR     85  41  21 CALM      29.84
IMPERIAL AP    CLEAR     87  43  21 E3        29.80S
EL CENTRO NAS  PTCLDY    86  39  19 CALM      29.82S
YUMA AZ        CLEAR     87  37  17 S3        29.82S
MEXICALI       PTCLDY    88  41  19 S5        29.82S

$$

UPPER DESERT

CITY           SKY/WX    TMP DP  RH WIND       PRES   REMARKS
VICTORVILLE AP CLEAR     82  28  14 W9        29.97S
HESPERIA         N/A     85  34  15 CALM      29.99F
PALMDALE       PTCLDY    81  35  19 NW15G29   29.95F
LANCASTER      PTCLDY    79  34  19 W17       29.94F
EDWARDS AFB    PTCLDY    80  35  20 W12       29.91S
DAGGETT        PTCLDY    80  37  21 E9        29.91F
29 PALMS N     CLEAR     83  30  14 E3        29.97F
NEEDLES        PTCLDY    81  36  19 CALM      29.88S

$$

REGIONAL REPORTS

CITY           SKY/WX    TMP DP  RH WIND       PRES   REMARKS
SANTA BARBARA  CLEAR     67  58  72 SE3       29.84F
SANDBERG       PTCLDY    68  34  28 N18       30.08F
LAS VEGAS NV   MOCLDY    75  38  26 NE5       29.94S
PHOENIX AZ     PTCLDY    84  35  17 CALM      29.85S
TIJUANA        PTCLDY    81  41  24 N6        29.88R
ENSENADA NW      N/A     78  32  18 CALM      29.78F

$$

OFFSHORE ISLANDS

CITY           SKY/WX    TMP DP  RH WIND       PRES   REMARKS
CATALINA ARPT  CLEAR     81  48  31 CALM      29.92F
SAN CLEMENTE I PTCLDY    69  61  75 SW5       29.87S
SAN NICOLAS IS CLEAR     75  32  20 NW8       29.87S

$$

MARINE AND OFFSHORE BUOY REPORTS

STATION/POSITION SKY/WX   TEMP    WIND        PRES    VSBY  SWELL
                          AIR SEA DIR/SP/G                  HT/PER/DIR
                          (F)     (DEG/KT/KT) (MB)    (MI)  (FT/S/D)
TANNER BANKS               64 63              1010.7F
S CLEMENTE BASIN           67 68  220/  4/  4 1010.8F         5/250/14
SAN NICOLAS IS.               63                N/A           3/300/13
SO. S. ROSA ISLA           63 61  310/ 14/ 16 1010.7F         5/270/13
W. S. BARBARA CH           62 60  310/ 17/ 21 1010.4
M. S. BARBARA CH           62 62  220/  6/  8 1011.1
S. MONICA BASIN               65  200/  2/  2 1010.4
S PEDRO CHANNEL               67                N/A           2/260/11
CMP PENDLETON NS              64                N/A           2/240/14
OCEANSIDE OFFSHR              66                N/A           2/230/15
TORREY PINES OTR              67                N/A           2/250/14
SAN DIEGO BAY                 67              1011.5F
POINT LOMA SOUTH              65                N/A           3/260/13

$$





USA.gov is the U.S. government's official web portal to all federal, state and local government web resources and services.